{"data":{"norad_id":52282,"epoch":"2026-09-19T19:04:05.566368Z","epoch_age_seconds":120460,"freshness":"FRESH","line1":"1 52282U 22041X   26262.79450887  .00000614  00000+0  29996-4 0  9993","line2":"2 52282  53.1603 295.1200 0001353  81.3274 278.7881 15.33550438243978","mean_motion":15.33550438,"eccentricity":0.0001353,"inclination_deg":53.1603,"raan_deg":295.12,"arg_perigee_deg":81.3274,"mean_anomaly_deg":278.7881,"bstar":2.9996e-5,"rev_number":24397,"period_min":93.899748212911,"perigee_km":464.30357566107,"apogee_km":466.1553906314,"semimajor_km":6843.3664831462,"source":"CELESTRAK","updated_at":"2026-09-20T09:00:40.014852Z"}}